Regional Weather Roundup
Issued by NWS

Home | Current Version | Previous Version | Text Only | Print | Product List | Glossary Off
Versions: 1 2 3 4 5 6 7 8 9 10 11 12 13 14 15 16 17 18 19 20 21 22 23 24 25 26 27 28 29 30 31 32 33 34 35 36 37 38 39 40 41 42 43 44 45 46 47 48 49 50

000
ASUS45 KPSR 282110
RWRAZ

ARIZONA HOURLY REGIONAL WEATHER ROUNDUP
NATIONAL WEATHER SERVICE PHOENIX AZ
200 PM MST WED JUN 28 2017

NOTE: FAIR INDICATES FEW OR NO CLOUDS BELOW 12,000 FEET WITH NO
SIGNIFICANT WEATHER AND/OR OBSTRUCTIONS TO VISIBILITY.

AZZ001>003-036-282200-
NORTHWEST ARIZONA

CITY           SKY/WX    TMP DP  RH WIND       PRES   REMARKS
BULLHEAD CITY  FAIR     108  16   4 SE23G30   29.65F
KINGMAN        FAIR      98  21   6 SW24G33   29.90S
$$

AZZ004>008-015-016-018-282200-
NORTH CENTRAL ARIZONA

CITY           SKY/WX    TMP DP  RH WIND       PRES   REMARKS
GRAND CANYON   FAIR      89   7   4 SW17G31   30.10F
PRESCOTT       FAIR      89  33  13 S12G24    30.04F
FLAGSTAFF      FAIR      81  27  14 SW18G28   30.17F
PAYSON         FAIR      90  23   9 W12G17    30.09F
$$

AZZ009>014-017-282200-
NORTHEAST ARIZONA

CITY           SKY/WX    TMP DP  RH WIND       PRES   REMARKS
WINSLOW        FAIR      97  12   4 SW21G37   29.99F
SAINT JOHNS    FAIR      92  17   6 W18G30    30.04F
WINDOW ROCK    FAIR      89  10   5 W21       30.11F
$$

AZZ540-542>544-546-548-282200-
GREATER PHOENIX AREA

CITY           SKY/WX    TMP DP  RH WIND       PRES   REMARKS
PHOENIX        FAIR     103  45  14 N5        29.75F
BUCKEYE          N/A    102  41  12 S12       29.76F
GLENDALE       SUNNY    106  43  11 S12       29.77F HX 101
LUKE AFB       FAIR     102  46  15 SW8       29.75F
DEER VALLEY    FAIR     103  37  10 W13       29.78F
SCOTTSDALE     FAIR     103  40  11 W8        29.80F
MESA-GATEWAY   SUNNY    100  45  15 VRB5      29.80F
CHANDLER       SUNNY    102  41  12 VRB6      29.77F
$$

AZZ539-553-282200-
SOUTHWEST MARICOPA COUNTY AND PINAL COUNTY

CITY           SKY/WX    TMP DP  RH WIND       PRES   REMARKS
CASA GRANDE    FAIR     103  52  18 VRB5      29.79F HX 100
GILA BEND      SUNNY    107  43  11 SW18      29.72F HX 102
$$

AZZ503-504-507>509-282200-
SOUTHEAST ARIZONA

CITY           SKY/WX    TMP DP  RH WIND       PRES   REMARKS
TUCSON         FAIR     104  36   9 NW10      29.88F
DAVIS-MONTHAN  FAIR     103  36  10 W16G23    29.87F
RYAN FIELD     SUNNY    106  39  10 SW8G25    29.87F HX 100
NOGALES        FAIR      98  40  13 SW16G24   30.01F
SIERRA VISTA   FAIR      95  41  15 SW13G23   30.07F
DOUGLAS        FAIR      98  35  11 W12       29.98F
SAFFORD        FAIR     102  32   8 W13G21    29.87F
$$

AZZ532-282200-
SOUTHWEST ARIZONA

CITY           SKY/WX    TMP DP  RH WIND       PRES   REMARKS
YUMA           FAIR     106  35   8 W10       29.69F
$$

CAZ041-043-047-048-061-525>527-560>570-282200-
SOUTHERN CALIFORNIA

CITY           SKY/WX    TMP DP  RH WIND       PRES   REMARKS
DOWNTOWN L.A.  FAIR      77  59  53 W8        29.86F
L.A. AIRPORT   FAIR      71  60  68 W14       29.88F
SAN DIEGO      FAIR      68  58  70 SW8       29.92S
BURBANK        FAIR      83  53  35 S13       29.86F
ONTARIO        FAIR      90  44  20 W13G21    29.85F
RIVERSIDE      FAIR      91  52  26 W18       29.84F
PALM SPRINGS   FAIR     106  20   5 SE12      29.72F
EL CENTRO NAS  FAIR     109  30   6 VRB7      29.67F HX 101
IMPERIAL       PTSUNNY  108  39   9 VRB5      29.65F HX 102
BLYTHE         FAIR     107  29   6 S9G18     29.69F
NEEDLES        FAIR     109  10   3 S17G25    29.70F
$$

NVZ020-UTZ003-282200-
SOUTHERN NEVADA-UTAH

CITY           SKY/WX    TMP DP  RH WIND       PRES   REMARKS
LAS VEGAS      FAIR     104  14   4 SW12G20   29.72F
SALT LAKE CITY FAIR      90  35  14 N6        29.83F
$$

NMZ009-TXZ055-282200-
NEW MEXICO-WEST TEXAS

CITY           SKY/WX    TMP DP  RH WIND       PRES   REMARKS
ALBUQUERQUE    SUNNY     92   8   4 VRB7G22   29.98F
EL PASO        FAIR      99  28   8 SW13      29.92F
$$


........................KEY........................
SKY/WX - SKY CONDITION/WEATHER
TMP    - TEMPERATURE IN FAHRENHEIT
DP     - DEW POINT IN FAHRENHEIT
RH     - RELATIVE HUMIDITY IN PERCENT
WIND   - DIRECTION AND SPEED IN MILES PER HOUR (MPH)
VRB    - VARIABLE WIND DIRECTION
PRES   - MEAN SEA LEVEL PRESSURE IN INCHES OF MERCURY
         F - FALLING PRESSURE   R - RISING PRESSURE
         S - STEADY PRESSURE
VSB    - VISIBILITY IN MILES
HX     - HEAT INDEX IN FAHRENHEIT
WCI    - WIND CHILL INDEX IN FAHRENHEIT
TC     - TEMPERATURE IN CELSIUS WHICH IS ALSO KNOWN AS
         TEMPERATURE IN CENTIGRADE
AFB    - AIR FORCE BASE
         LUKE AFB IS LUKE AIR FORCE BASE
         DAVIS-MONTHAN IS DAVIS-MONTHAN AIR FORCE BASE
NAS    - NAVAL AIR STATION
         EL CENTRO NAS IS EL CENTRO NAVAL AIR STATION
N/A    - NOT AVAILABLE




USA.gov is the U.S. government's official web portal to all federal, state and local government web resources and services.